Date String (YYYY-MM-DD hh:mm:ss) UTC,Instrument flags,Ambient pressure (hPa),Sample flow (lpm),Bypass flow (lpm),Sample temperature (°C),Ambient temperature (°C),ASC tube jacket temperature (°C),LED temperature (°C),Box temperature (°C),Sample RH (%),Span deviation,Mass concentration (μg/m³),Mass concentration (μg/m³),Mass concentration (μg/m³)
DateTimeUTC,F1_M11,P_M11,Q1_M11,Q2_M11,T1_M11,T2_M11,T3_M11,T4_M11,T5_M11,U1_M11,ZSPAN_M11,X2_M11,X0_M11,X1_M11
2022-04-03 09:00:00,,0821.6,5.00,0.00,27.6,26.7,00.0,36.9,29.3,10.6,0000.0,0006.82,0014.41,0005.20
2022-04-03 09:01:00,,0821.7,5.01,0.00,27.6,26.6,00.0,36.9,29.3,10.7,0000.0,0006.82,0014.60,0005.16
2022-04-03 09:02:00,,0821.7,5.00,0.00,27.6,26.6,00.0,36.8,29.2,10.7,0000.0,0006.84,0015.02,0005.13
2022-04-03 09:03:00,,0821.7,5.00,0.00,27.6,26.6,00.0,36.8,29.2,10.7,0000.0,0006.80,0015.29,0005.07
2022-04-03 09:04:00,,0821.7,5.00,0.00,27.5,26.5,00.0,36.8,29.2,10.8,0000.0,0006.78,0016.00,0005.00
2022-04-03 09:05:00,,0821.7,5.01,0.00,27.5,26.5,00.0,36.8,29.2,10.8,0000.0,0006.71,0016.10,0004.90
2022-04-03 09:06:00,,0821.8,5.01,0.00,27.5,26.5,00.0,36.7,29.1,10.8,0000.0,0006.61,0015.55,0004.82
2022-04-03 09:07:00,,0821.8,4.99,0.00,27.5,26.5,00.0,36.7,29.1,10.8,0000.0,0006.52,0015.15,0004.75
2022-04-03 09:08:00,,0821.8,5.00,0.00,27.4,26.5,00.0,36.7,29.1,10.8,0000.0,0006.49,0015.27,0004.72
2022-04-03 09:09:00,,0821.7,5.00,0.00,27.4,26.5,00.0,36.7,29.0,10.8,-000.0,0006.48,0016.37,0004.71
2022-04-03 09:10:00,,0821.6,5.02,0.00,27.4,26.4,00.0,36.6,29.0,10.8,0000.9,0006.46,0016.48,0004.70
2022-04-03 09:11:00,,0821.6,4.99,0.00,27.4,26.4,00.0,36.6,29.0,10.9,0001.6,0006.47,0017.47,0004.70
2022-04-03 09:12:00,,0821.7,4.99,0.00,27.4,26.4,00.0,36.6,29.0,10.8,0001.8,0006.50,0018.25,0004.70
2022-04-03 09:13:00,,0821.7,4.98,0.00,27.3,26.3,00.0,36.6,29.0,10.9,0002.1,0006.51,0018.73,0004.69
2022-04-03 09:14:00,,0821.7,5.01,0.00,27.3,26.3,00.0,36.5,29.0,10.9,0000.6,0006.46,0018.43,0004.68
2022-04-03 09:15:00,,0821.7,5.01,0.00,27.3,26.2,00.0,36.5,28.9,10.9,0001.8,0006.40,0017.86,0004.68
2022-04-03 09:16:00,,0821.7,5.00,0.00,27.3,26.3,00.0,36.5,29.0,10.9,0001.7,0006.34,0017.56,0004.68
2022-04-03 09:17:00,,0821.7,5.02,0.00,27.3,26.3,00.0,36.5,29.0,10.9,0000.7,0006.29,0018.05,0004.68
2022-04-03 09:18:00,,0821.7,5.00,0.00,27.3,26.3,00.0,36.5,28.9,10.9,0000.0,0006.27,0017.48,0004.68
2022-04-03 09:19:00,,0821.7,5.00,0.00,27.2,26.3,00.0,36.4,28.9,10.9,0000.0,0006.31,0017.47,0004.69
2022-04-03 09:20:00,,0821.7,4.99,0.00,27.2,26.3,00.0,36.4,28.9,10.9,0000.0,0006.35,0016.41,0004.71
2022-04-03 09:21:00,,0821.7,5.00,0.00,27.2,26.3,00.0,36.4,28.9,10.9,0000.0,0006.33,0016.20,0004.70
2022-04-03 09:22:00,,0821.7,4.99,0.00,27.2,26.3,00.0,36.4,29.0,10.9,0000.0,0006.28,0016.26,0004.70
2022-04-03 09:23:00,,0821.7,4.99,0.00,27.3,26.4,00.0,36.4,29.0,10.9,0000.0,0006.27,0016.38,0004.71
2022-04-03 09:24:00,,0821.7,5.00,0.00,27.3,26.5,00.0,36.4,29.1,10.9,0000.0,0006.21,0015.36,0004.70
2022-04-03 09:25:00,,0821.7,5.00,0.00,27.3,26.6,00.0,36.4,29.2,10.8,0000.0,0006.21,0015.31,0004.68
2022-04-03 09:26:00,,0821.7,5.00,0.00,27.3,26.6,00.0,36.4,29.2,10.8,0000.0,0006.22,0015.13,0004.66
2022-04-03 09:27:00,,0821.7,5.01,0.00,27.4,26.7,00.0,36.4,29.2,10.8,0000.0,0006.23,0015.11,0004.63
2022-04-03 09:28:00,,0821.8,5.00,0.00,27.4,26.7,00.0,36.4,29.3,10.8,0000.0,0006.28,0014.63,0004.62
2022-04-03 09:29:00,,0821.8,5.00,0.00,27.4,26.8,00.0,36.4,29.3,10.8,0000.0,0006.34,0015.09,0004.62
2022-04-03 09:30:00,,0821.8,5.00,0.00,27.4,26.8,00.0,36.4,29.3,10.7,0000.6,0006.31,0015.62,0004.62
2022-04-03 09:31:00,,0821.8,5.00,0.00,27.4,26.8,00.0,36.4,29.3,10.8,0002.5,0006.25,0015.46,0004.62
2022-04-03 09:32:00,,0822.0,5.00,0.00,27.5,26.8,00.0,36.4,29.3,10.9,0003.0,0006.31,0015.61,0004.64
2022-04-03 09:33:00,,0821.8,5.01,0.00,27.5,26.8,00.0,36.4,29.3,10.8,0002.2,0006.38,0014.84,0004.66
2022-04-03 09:34:00,,0821.9,5.00,0.00,27.5,26.8,00.0,36.4,29.3,10.8,0001.5,0006.36,0013.64,0004.68
2022-04-03 09:35:00,,0822.0,5.00,0.00,27.5,26.8,00.0,36.4,29.4,10.8,0001.9,0006.42,0013.69,0004.71
2022-04-03 09:36:00,,0822.0,5.00,0.00,27.5,26.9,00.0,36.4,29.4,10.8,0002.4,0006.45,0013.87,0004.74
2022-04-03 09:37:00,,0822.0,5.00,0.00,27.6,26.9,00.0,36.4,29.4,10.8,0001.9,0006.53,0014.35,0004.78
2022-04-03 09:38:00,,0822.0,4.99,0.00,27.6,26.9,00.0,36.4,29.4,10.9,0001.6,0006.59,0014.85,0004.81
2022-04-03 09:39:00,,0821.9,5.01,0.00,27.6,26.9,00.0,36.5,29.4,10.8,0002.0,0006.66,0014.94,0004.87
2022-04-03 09:40:00,,0821.9,5.00,0.00,27.6,26.9,00.0,36.5,29.4,10.8,0002.3,0006.67,0014.59,0004.90
2022-04-03 09:41:00,,0821.9,5.01,0.00,27.6,26.9,00.0,36.5,29.4,10.8,0002.4,0006.67,0014.00,0004.91
2022-04-03 09:42:00,,0821.8,5.01,0.00,27.6,26.9,00.0,36.5,29.5,11.0,0002.1,0006.67,0013.99,0004.92
2022-04-03 09:43:00,,0821.8,4.99,0.00,27.6,26.9,00.0,36.5,29.5,11.0,0002.2,0006.68,0014.13,0004.94
2022-04-03 09:44:00,,0822.2,5.00,0.00,27.7,27.0,00.0,36.5,29.5,11.0,0001.9,0006.66,0014.23,0004.95
2022-04-03 09:45:00,,0822.2,5.00,0.00,27.7,27.0,00.0,36.5,29.5,11.0,0002.2,0006.73,0014.76,0004.96
2022-04-03 09:46:00,,0822.2,5.00,0.00,27.7,27.0,00.0,36.5,29.5,11.0,0001.7,0006.71,0015.12,0004.96
2022-04-03 09:47:00,,0821.9,5.00,0.00,27.7,27.0,00.0,36.6,29.5,10.9,0000.9,0006.69,0015.17,0004.99
2022-04-03 09:48:00,,0821.7,5.01,0.00,27.7,27.0,00.0,36.6,29.5,10.9,0001.0,0006.64,0015.26,0005.01
2022-04-03 09:49:00,,0821.8,4.99,0.00,27.7,27.0,00.0,36.6,29.5,10.9,0000.6,0006.62,0014.60,0005.04
2022-04-03 09:50:00,,0821.8,5.00,0.00,27.7,27.0,00.0,36.6,29.5,10.8,0001.0,0006.62,0014.92,0005.05
2022-04-03 09:51:00,,0821.9,4.99,0.00,27.7,27.0,00.0,36.6,29.5,10.8,0000.6,0006.64,0015.71,0005.07
2022-04-03 09:52:00,,0821.9,4.99,0.00,27.7,27.0,00.0,36.6,29.5,10.9,-001.0,0006.73,0016.35,0005.11
2022-04-03 09:53:00,,0821.9,5.01,0.00,27.7,27.0,00.0,36.6,29.5,10.9,-001.1,0006.85,0016.66,0005.18
2022-04-03 09:54:00,,0821.8,5.00,0.00,27.7,26.9,00.0,36.6,29.5,10.9,-001.3,0007.00,0016.87,0005.24
2022-04-03 09:55:00,,0821.7,5.00,0.00,27.7,26.9,00.0,36.6,29.5,11.0,-000.4,0007.11,0017.71,0005.30
2022-04-03 09:56:00,,0821.8,5.00,0.00,27.7,26.9,00.0,36.6,29.5,11.0,-000.2,0007.16,0017.48,0005.35
2022-04-03 09:57:00,,0821.9,5.00,0.00,27.7,26.9,00.0,36.6,29.5,11.0,-000.2,0007.16,0017.12,0005.40
2022-04-03 09:58:00,,0821.9,4.99,0.00,27.7,26.9,00.0,36.6,29.5,11.0,-000.2,0007.22,0017.41,0005.44
2022-04-03 09:59:00,,0821.8,5.01,0.00,27.7,26.9,00.0,36.6,29.5,11.0,-000.7,0007.27,0017.48,0005.49
